Weather History for Carbondale, IL

Change the Weather History Date:

Tuesday, February 5, 2013

  Actual Average Record
Temperature  
Mean Temperature 42 °F -  
Max Temperature 57 °F 42 °F 75 °F (1927)
Min Temperature 26 °F 20 °F -5 °F (1966)
Degree Days  
Heating Degree Days 24    
Moisture  
Dew Point 28 °F    
Average Humidity 73    
Maximum Humidity 93    
Minimum Humidity 40    
Precipitation  
Precipitation 0.00 in - - ()
Sea Level Pressure  
Sea Level Pressure 29.99 in    
Wind  
Wind Speed 4 mph (West)    
Max Wind Speed 12 mph    
Max Gust Speed 20 mph    
Visibility 6 miles    
Events      
Averages and records for this station are not official NWS values.
T = Trace of Precipitation, MM = Missing Value Source: NWS Daily Summary

Daily Weather History Graph

Daily Weather History Graph

Search for Another Location

Airport:

Trip Planner

Search our weather history database for the weather conditions in past years. The results will help you decide how hot, cold, wet, or windy it might be!

Date:

Astronomy

Feb. 05, 2013 Rise Set
Actual Time 6:57 AM CST 5:25 PM CST
Civil Twilight 6:29 AM CST 5:52 PM CST
Nautical Twilight 5:58 AM CST 6:24 PM CST
Astronomical Twilight 5:27 AM CST 6:54 PM CST
Moon 2:36 AM CST (2/5) 12:44 PM CST (2/5)
Length of Visible Light 11h 23m
Length of Day
10h 28m
Waning Crescent, 26% of the Moon is Illuminated
Feb 5
Waning Crescent
Feb 10
New
Feb 17
First Quarter
Feb 25
Full
Mar 4
Last Quarter

Hourly Weather History & Observations

Time (CST) Temp. Windchill Dew Point Humidity Pressure Visibility Wind Dir Wind Speed Gust Speed Precip Events Conditions
12:52 AM 32.0 °F 26.4 °F 27.0 °F 82% 29.97 in 10.0 mi NNW 5.8 mph - N/A   Clear
1:52 AM 32.0 °F 25.6 °F 27.0 °F 82% 29.98 in 7.0 mi NNW 6.9 mph - N/A   Clear
2:52 AM 30.9 °F 27.5 °F 26.1 °F 82% 29.97 in 6.0 mi NNW 3.5 mph - N/A   Haze
3:52 AM 30.0 °F - 26.1 °F 85% 29.96 in 5.0 mi Calm Calm - N/A   Clear
4:30 AM 28.4 °F - 24.8 °F 86% 29.96 in 2.0 mi Calm Calm - N/A   Clear
4:49 AM 28.4 °F - 24.8 °F 86% 29.96 in 3.0 mi Calm Calm - N/A   Clear
4:52 AM 28.0 °F - 25.0 °F 88% 29.97 in 3.0 mi Calm Calm - N/A   Clear
5:01 AM 26.6 °F - 23.0 °F 86% 29.96 in 2.5 mi Calm Calm - N/A   Clear
5:27 AM 28.4 °F - 24.8 °F 86% 29.97 in 1.5 mi Calm Calm - N/A   Clear
5:36 AM 28.4 °F 24.6 °F 24.8 °F 86% 29.97 in 3.0 mi North 3.5 mph - N/A   Clear
5:45 AM 28.4 °F 23.3 °F 24.8 °F 86% 29.97 in 2.5 mi North 4.6 mph - N/A   Haze
5:52 AM 28.0 °F 21.7 °F 24.1 °F 85% 29.99 in 3.0 mi NNW 5.8 mph - N/A   Clear
6:44 AM 26.6 °F - 24.8 °F 93% 29.99 in 2.5 mi Calm Calm - N/A   Clear
6:52 AM 28.0 °F - 24.1 °F 85% 30.01 in 2.5 mi Calm Calm - N/A   Partly Cloudy
7:03 AM 26.6 °F - 23.0 °F 86% 29.99 in 1.2 mi Calm Calm - N/A   Partly Cloudy
7:34 AM 28.4 °F 24.6 °F 24.8 °F 86% 29.99 in 2.0 mi South 3.5 mph - N/A   Partly Cloudy
7:52 AM 30.0 °F - 26.1 °F 85% 30.01 in 2.0 mi Calm Calm - N/A   Mostly Cloudy
8:52 AM 32.0 °F - 28.0 °F 85% 30.02 in 3.0 mi Calm Calm - N/A   Mostly Cloudy
9:52 AM 37.0 °F 32.4 °F 28.9 °F 73% 30.01 in 6.0 mi South 5.8 mph - N/A   Haze
10:52 AM 43.0 °F 36.8 °F 32.0 °F 65% 30.00 in 9.0 mi SSW 11.5 mph - N/A   Mostly Cloudy
11:52 AM 48.9 °F - 33.1 °F 54% 29.96 in 10.0 mi SSW 10.4 mph - N/A   Clear
12:52 PM 52.0 °F - 32.0 °F 47% 29.95 in 10.0 mi West 9.2 mph - N/A   Clear
1:52 PM 54.0 °F - 33.1 °F 45% 29.93 in 10.0 mi SW 10.4 mph - N/A   Clear
2:52 PM 55.9 °F - 33.1 °F 42% 29.93 in 10.0 mi WSW 9.2 mph 19.6 mph N/A   Clear
3:52 PM 57.0 °F - 33.1 °F 40% 29.94 in 10.0 mi SW 8.1 mph - N/A   Clear
4:52 PM 54.0 °F - 34.0 °F 47% 29.95 in 10.0 mi SW 5.8 mph - N/A   Clear
5:52 PM 50.0 °F - 34.0 °F 54% 29.97 in 10.0 mi West 6.9 mph - N/A   Clear
6:52 PM 46.0 °F - 35.1 °F 66% 30.00 in 10.0 mi Calm Calm - N/A   Clear
7:52 PM 44.1 °F - 33.1 °F 65% 30.04 in 10.0 mi Calm Calm - N/A   Clear
8:52 PM 42.1 °F - 33.1 °F 70% 30.06 in 10.0 mi Calm Calm - N/A   Clear
9:52 PM 39.9 °F - 30.0 °F 68% 30.09 in 10.0 mi Calm Calm - N/A   Clear
10:52 PM 39.9 °F 37.8 °F 30.9 °F 70% 30.11 in 10.0 mi NNE 3.5 mph - N/A   Clear
11:52 PM 39.9 °F 37.8 °F 30.0 °F 68% 30.13 in 10.0 mi North 3.5 mph - N/A   Clear